Le nostre stazioni meteo in Italia

Pubblicità
Il mio iltempo24.it
Gela, Italia (16453): Temperatura & dewpoint: 01.12.2019 10:00:00 - 07.12.2019 10:00:00 (CET)Gela, Italia (16453): velocità del vento: 01.12.2019 10:00:00 - 07.12.2019 10:00:00 (CET)Gela, Italia (16453): direzione del vento: 01.12.2019 10:00:00 - 07.12.2019 10:00:00 (CET)Gela, Italia (16453): reduced air pressure: 01.12.2019 10:00:00 - 07.12.2019 10:00:00 (CET)Gela, Italia (16453): visibility: 01.12.2019 10:00:00 - 07.12.2019 10:00:00 (CET)Gela, Italia (16453): ore di luce: 01.12.2019 10:00:00 - 07.12.2019 10:00:00 (CET)
Data & Tempo tt [°C] td [°C] ff [km/h] ff [kn] dd ppp [hPa] vv [km] sd [min]
07.12.2019 10:00:00 15,0 10,6 8 4 ENE 1024,5 25 60
07.12.2019 09:00:00 15,0 11,0 5 3 ENE - 10 -
07.12.2019 08:00:00 14,0 10,0 5 3 E - 10 -
07.12.2019 07:00:00 13,8 10,0 4 2 N 1023,6 10 0
07.12.2019 06:00:00 - - - - - - - -
07.12.2019 05:00:00 - - - - - - - -
07.12.2019 04:00:00 - - - - - - - -
07.12.2019 03:00:00 - - - - - - - -
07.12.2019 02:00:00 - - - - - - - -
07.12.2019 01:00:00 - - - - - - - -
07.12.2019 00:00:00 - - - - - - - -
06.12.2019 23:00:00 - - - - - - - -
06.12.2019 22:00:00 - - - - - - - -
06.12.2019 21:00:00 - - - - - - - -
06.12.2019 20:00:00 - - - - - - - -
06.12.2019 19:00:00 15,8 12,9 9 5 ONO 1023,6 10 0
06.12.2019 18:00:00 17,0 13,0 9 5 ONO - 10 -
06.12.2019 17:00:00 18,0 14,0 16 9 O - 10 -
06.12.2019 16:00:00 18,0 13,9 24 13 O 1022,8 10 60
06.12.2019 15:00:00 18,0 14,0 21 11 O - 10 -
06.12.2019 14:00:00 18,0 14,0 21 11 O - 10 -
06.12.2019 13:00:00 17,8 13,5 18 10 O 1023,3 12 60
06.12.2019 12:00:00 17,0 13,0 9 5 SO - 10 -
06.12.2019 11:00:00 17,0 14,0 8 4 SSO - 10 -
06.12.2019 10:00:00 17,0 13,9 4 2 N 1024,2 10 60
06.12.2019 09:00:00 16,0 13,0 4 2 ENE - 10 -
06.12.2019 08:00:00 15,0 13,0 4 2 - - 10 -
06.12.2019 07:00:00 15,2 12,9 8 4 - 1022,9 10 0
06.12.2019 06:00:00 - - - - - - - -
06.12.2019 05:00:00 - - - - - - - -
06.12.2019 04:00:00 - - - - - - - -
06.12.2019 03:00:00 - - - - - - - -
06.12.2019 02:00:00 - - - - - - - -
06.12.2019 01:00:00 - - - - - - - -
06.12.2019 00:00:00 - - - - - - - -
05.12.2019 23:00:00 - - - - - - - -
05.12.2019 22:00:00 - - - - - - - -
05.12.2019 21:00:00 - - - - - - - -
05.12.2019 20:00:00 - - - - - - - -
05.12.2019 19:00:00 17,0 13,5 13 7 ENE 1019,2 10 0
05.12.2019 18:00:00 17,0 14,0 11 6 ENE - 10 -
05.12.2019 17:00:00 17,0 14,0 15 8 ENE - 10 -
05.12.2019 16:00:00 17,0 12,1 21 11 ENE 1018,2 10 60
05.12.2019 15:00:00 17,0 13,0 21 11 ENE - 10 -
05.12.2019 14:00:00 17,0 13,0 24 13 ENE - 10 -
05.12.2019 13:00:00 17,0 12,5 24 13 ENE 1018,3 10 12
05.12.2019 12:00:00 17,0 13,0 26 14 ENE - 10 -
05.12.2019 11:00:00 17,0 13,0 29 16 ENE - 10 -
05.12.2019 10:00:00 17,0 13,0 28 15 ENE 1018,2 14 60
05.12.2019 09:00:00 16,0 13,0 31 17 ENE - 10 -
05.12.2019 08:00:00 15,0 12,0 29 16 ENE - 10 -
05.12.2019 07:00:00 14,6 11,2 26 14 ENE 1017,6 10 0
05.12.2019 06:00:00 - - - - - - - -
05.12.2019 05:00:00 - - - - - - - -
05.12.2019 04:00:00 - - - - - - - -
05.12.2019 03:00:00 - - - - - - - -
05.12.2019 02:00:00 - - - - - - - -
05.12.2019 01:00:00 - - - - - - - -
05.12.2019 00:00:00 - - - - - - - -
04.12.2019 23:00:00 - - - - - - - -
04.12.2019 22:00:00 - - - - - - - -
04.12.2019 21:00:00 - - - - - - - -
04.12.2019 20:00:00 - - - - - - - -
04.12.2019 19:00:00 15,6 11,6 24 13 ENE 1016,9 12 0
04.12.2019 18:00:00 16,0 12,0 24 13 ENE - 10 -
04.12.2019 17:00:00 - - - - - - - -
04.12.2019 16:00:00 16,2 11,6 31 17 ENE 1016,1 10 0
04.12.2019 15:00:00 16,0 11,0 29 16 - - 10 -
04.12.2019 14:00:00 16,0 11,0 41 22 ENE - 10 -
04.12.2019 13:00:00 16,4 11,4 29 16 ENE 1014,8 10 60
04.12.2019 12:00:00 17,0 12,0 37 20 ENE - 10 -
04.12.2019 11:00:00 16,0 12,0 42 23 ENE - 10 -
04.12.2019 10:00:00 16,6 12,4 37 20 ENE 1016,7 10 60
04.12.2019 09:00:00 16,0 13,0 35 19 ENE - 10 -
04.12.2019 08:00:00 16,0 13,0 29 16 ENE - 10 -
04.12.2019 07:00:00 15,6 12,7 26 14 ENE 1016,2 10 0
04.12.2019 06:00:00 - - - - - - - -
04.12.2019 05:00:00 - - - - - - - -
04.12.2019 04:00:00 - - - - - - - -
04.12.2019 03:00:00 - - - - - - - -
04.12.2019 02:00:00 - - - - - - - -
04.12.2019 01:00:00 - - - - - - - -
04.12.2019 00:00:00 - - - - - - - -
03.12.2019 23:00:00 - - - - - - - -
03.12.2019 22:00:00 - - - - - - - -
03.12.2019 21:00:00 - - - - - - - -
03.12.2019 20:00:00 - - - - - - - -
03.12.2019 19:00:00 17,4 14,3 18 10 ENE 1014,2 14 0
03.12.2019 18:00:00 18,0 14,0 16 9 E - 10 -
03.12.2019 17:00:00 19,0 15,0 16 9 ENE - 10 -
03.12.2019 16:00:00 19,4 13,8 15 8 ENE 1012,8 14 60
03.12.2019 15:00:00 20,0 14,0 18 10 ENE - 10 -
03.12.2019 14:00:00 20,0 14,0 15 8 NE - 10 -
03.12.2019 13:00:00 19,4 14,2 15 8 ENE 1013,5 14 60
03.12.2019 12:00:00 19,0 14,0 21 11 ENE - 10 -
03.12.2019 11:00:00 19,0 14,0 18 10 ENE - 10 -
03.12.2019 10:00:00 18,2 14,7 16 9 ENE 1015,3 14 48
03.12.2019 09:00:00 17,0 14,0 13 7 ENE - 10 -
03.12.2019 08:00:00 16,0 14,0 13 7 ENE - 10 -
03.12.2019 07:00:00 16,4 13,5 15 8 ENE 1015,0 10 0
03.12.2019 06:00:00 - - - - - - - -
03.12.2019 05:00:00 - - - - - - - -
03.12.2019 04:00:00 - - - - - - - -
03.12.2019 03:00:00 - - - - - - - -
03.12.2019 02:00:00 - - - - - - - -
03.12.2019 01:00:00 - - - - - - - -
03.12.2019 00:00:00 - - - - - - - -
02.12.2019 23:00:00 - - - - - - - -
02.12.2019 22:00:00 - - - - - - - -
02.12.2019 21:00:00 - - - - - - - -
02.12.2019 20:00:00 - - - - - - - -
02.12.2019 19:00:00 16,8 13,9 8 4 ENE 1017,3 10 0
02.12.2019 18:00:00 18,0 15,0 9 5 N - 10 -
02.12.2019 17:00:00 18,0 14,0 9 5 E - 10 -
02.12.2019 16:00:00 18,4 14,7 9 5 SSE 1016,5 14 60
02.12.2019 15:00:00 19,0 15,0 15 8 S - 10 -
02.12.2019 14:00:00 19,0 15,0 11 6 S - 10 -
02.12.2019 13:00:00 19,2 14,0 8 4 SSE 1017,5 16 60
02.12.2019 12:00:00 18,0 13,0 11 6 SE - 10 -
02.12.2019 11:00:00 17,0 13,0 4 2 ENE - 10 -
02.12.2019 10:00:00 16,6 12,8 8 4 ENE 1019,2 16 0
02.12.2019 09:00:00 16,0 12,0 9 5 ENE - 10 -
02.12.2019 08:00:00 16,0 12,0 11 6 ENE - 10 -
02.12.2019 07:00:00 15,6 12,2 13 7 ENE 1018,8 10 0
02.12.2019 06:00:00 - - - - - - - -
02.12.2019 05:00:00 - - - - - - - -
02.12.2019 04:00:00 - - - - - - - -
02.12.2019 03:00:00 - - - - - - - -
02.12.2019 02:00:00 - - - - - - - -
02.12.2019 01:00:00 - - - - - - - -
02.12.2019 00:00:00 - - - - - - - -
01.12.2019 23:00:00 - - - - - - - -
01.12.2019 22:00:00 - - - - - - - -
01.12.2019 21:00:00 - - - - - - - -
01.12.2019 20:00:00 - - - - - - - -
01.12.2019 19:00:00 15,6 12,0 8 4 ENE 1021,1 16 0
01.12.2019 18:00:00 17,0 13,0 8 4 SSE - 10 -
01.12.2019 17:00:00 17,0 13,0 8 4 S - 10 -
01.12.2019 16:00:00 17,2 12,9 9 5 SSO 1020,8 16 48
01.12.2019 15:00:00 18,0 12,0 15 8 S - 10 -
01.12.2019 14:00:00 18,0 11,0 8 4 SSO - 10 -
01.12.2019 13:00:00 18,4 9,2 9 5 S 1020,9 18 60
01.12.2019 12:00:00 18,0 10,0 5 3 S - 10 -
01.12.2019 11:00:00 18,0 10,0 5 3 E - 10 -
01.12.2019 10:00:00 16,0 11,2 5 3 ENE 1021,8 18 60

tt = Temperatura
td = dewpoint
ff = velocità del vento
dd = direzione del vento
ppp = reduced air pressure
vv = visibility
sd = ore di luce

Stazioni seguenti

WeatherPro
AMSI
MeteoEarth